Location: Santa Cristina
(46.5667°N, 11.7167°E)
Time: 06:54:33
(UTC+00:00)

Cosmos 1833 - Pass Details

Date: 21 April 2021
Orbit: 835 x 864 km, 70.9° (Epoch: 15 May)

Event Time Altitude Azimuth Distance (km) Brightness Sun altitude
Rises 03:27:17 0° 332° (NNW) 3,428 7.4 -8.4°
Reaches altitude 10° 03:29:45 10° 331° (NNW) 2,492 6.6 -8.1°
Maximum altitude 03:35:29 80° 246° (WSW) 876 4.2 -7.2°
Drops below altitude 10° 03:41:13 10° 160° (SSE) 2,492 6.6 -6.3°
Sets 03:43:40 0° 159° (SSE) 3,427 7.3 -5.9°
